FLOCK 2B-9

Last updated on Oct. 16, 2016, 5:19 p.m. UTC

1 40963U 98067HL  16290.22871241  .08214560  12305-4  80059-3 0  9993
2 40963  51.6156 120.1405 0015098 267.3200  93.7862 16.37055307 59055

Satellite is not in orbit.